Regional Weather Roundup
Issued by NWS

Home | Current Version | Previous Version | Graphics & Text | Print | Product List | Glossary On
Versions: 1 2 3 4 5 6 7 8 9 10 11 12 13 14 15 16 17 18 19 20 21 22 23 24 25 26 27 28 29 30 31 32 33 34 35 36 37 38 39 40 41 42 43 44 45 46 47 48 49 50
000
ASUS43 KMKX 212311
RWRWI

WISCONSIN REGIONAL WEATHER ROUNDUP
NATIONAL WEATHER SERVICE MILWAUKEE/SULLIVAN WI
500 PM CST FRI NOV 21 2014

NOTE: "FAIR" INDICATES FEW OR NO CLOUDS BELOW 12,000 FEET WITH NO
SIGNIFICANT WEATHER AND/OR OBSTRUCTIONS TO VISIBILITY.

WIZ001-002-006>008-014>016-023>028-220000-
NORTHWEST WISCONSIN

CITY           SKY/WX    TMP DP  RH WIND       PRES   REMARKS
SUPERIOR ARPT  CLOUDY    28  18  64 SW18G24   29.91S WCI  15
ASHLAND        MOCLDY    26  12  55 S20G26    29.93F WCI  12
HAYWARD        MOCLDY    24  12  60 S17G24    29.96F WCI  11
SIREN          MOCLDY    27  16  63 S10       29.97S WCI  17
CUMBERLAND     PTCLDY    23  12  63 S12       29.99S WCI  12
RICE LAKE      PTCLDY    23  12  62 SE12      30.02F WCI  12
CHETEK         PTCLDY    22  10  59 SE8       30.03F WCI  13
LADYSMITH      PTCLDY    23   8  51 S8        30.04F WCI  14
EAU CLAIRE     PTCLDY    25   9  50 S14       30.06F WCI  13
MENOMONIE      PTCLDY    27  13  57 S8        30.05F WCI  18
NEW RICHMOND   PTCLDY    26  16  66 S14G22    30.01S WCI  14
OSCEOLA        PTCLDY    27  18  69 S14       30.02F WCI  15
$$

WIZ003>005-009-010-017-018-220000-
NORTH CENTRAL WISCONSIN

CITY           SKY/WX    TMP DP  RH WIND       PRES   REMARKS
MANITOWISH WTR PTCLDY    21   4  48 S12G17    29.97F WCI   9
ARBOR VITAE    PTCLDY    22   6  51 S13G21    30.00S WCI  10
WOODRUFF       PTCLDY    22   6  51 S13G21    30.00S WCI  10
RHINELANDER    PTCLDY    21   4  47 S17G24    30.03F WCI   7
EAGLE RIVER    CLEAR     20   4  49 S6        30.01F WCI  12
LAND O LAKES   PTCLDY    21   5  49 S9G17     29.99F WCI  11
PHILLIPS       MOCLDY    22   5  48 S14       30.00F WCI   9
TOMAHAWK       MOCLDY    21   7  53 S3        30.05F
MEDFORD        PTCLDY    21   8  56 S13       30.06F WCI   9
MERRILL        PTCLDY    24   6  48 S6        30.08F WCI  16
$$

WIZ029-030-035-036-043>047-220000-
CENTRAL WISCONSIN

CITY           SKY/WX    TMP DP  RH WIND       PRES   REMARKS
WAUSAU         MOCLDY    25   6  44 S12       30.09F WCI  14
MOSINEE        PTCLDY    25   9  50 S14       30.12F WCI  13
MARSHFIELD     CLEAR     24   7  48 S12       30.11F WCI  13
STEVENS POINT  PTCLDY    24   6  46 S10       30.15S WCI  14
WAUPACA        MOCLDY    30   9  41 S9        30.18F WCI  21
WAUTOMA        MOCLDY    29   8  41 S9        30.19F WCI  21
WISC RAPIDS    PTCLDY    27   4  37 S8        30.16F WCI  19
CAMP DOUGLAS   MOCLDY    27   8  43 S10       30.16F WCI  17
$$

WIZ011>013-019>022-031-037>040-048>050-220000-
NORTHEAST WISCONSIN

CITY           SKY/WX    TMP DP  RH WIND       PRES   REMARKS
ANTIGO         CLOUDY    22   8  54 S14       30.08F WCI   9
SHAWANO        PTCLDY    28   9  45 S3        30.17F
OCONTO         MOCLDY    26   7  43 S9        30.19F WCI  17
STURGEON BAY   PTCLDY    27   9  46 S13G18    30.19F WCI  16
GREEN BAY      PTCLDY    28   9  44 S9        30.20F WCI  19
MANITOWOC      MOCLDY    30   8  39 S14       30.23F WCI  19
APPLETON       MOCLDY    27   9  46 SW12      30.20F WCI  16
CLINTONVILLE   PTCLDY    28  10  47 S12       30.18F WCI  18
OSHKOSH        MOCLDY    28  10  46 S9        30.21F WCI  19
$$

WIZ032>034-041-042-053>061-220000-
SOUTHWEST WISCONSIN

CITY           SKY/WX    TMP DP  RH WIND       PRES   REMARKS
LA CROSSE      CLOUDY    30  13  49 S12       30.14F WCI  20
SPARTA         PTCLDY    28   9  44 S9        30.15F WCI  19
VIROQUA        CLOUDY    26  11  53 S15       30.13F WCI  14
BOSCOBEL       PTCLDY    30  10  43 S7        30.21F WCI  23
PRAIRIE DU CHI MOCLDY    30  12  46 SE3       30.19F
PLATTEVILLE    PTCLDY    26  11  54 CALM      30.21F
$$

WIZ056-057-062-063-064-067-068-220000-
SOUTH CENTRAL WISCONSIN

CITY           SKY/WX    TMP DP  RH WIND       PRES   REMARKS
REEDSBURG      CLEAR     27   8  45 S5        30.19F WCI  22
BARABOO/DELLS  CLEAR     25   9  49 S7        30.19F WCI  17
LONE ROCK      CLEAR     31   9  39 SE5       30.22F WCI  26
MINERAL POINT  CLEAR     30  10  43 S13       30.19F WCI  20
MADISON        PTCLDY    29   7  39 S12       30.22F WCI  19
MIDDLETON      CLEAR     30   5  35 S9        30.22F WCI  21
WATERTOWN      CLEAR     26   8  45 S6        30.24F WCI  20
MONROE         CLEAR     30   9  40 S12       30.22F WCI  21
JANESVILLE     CLEAR     30   1  29 S9        30.26F WCI  22
$$

WIZ051-052-058>065-066-070>072-220000-
SOUTHEAST WISCONSIN

CITY           SKY/WX    TMP DP  RH WIND       PRES   REMARKS
MILWAUKEE      PTCLDY    29   2  31 S7        30.28F WCI  22
WAUKESHA       CLEAR     28   1  31 S10       30.27  WCI  19
MILWAUKEE/TIMM CLEAR     28   0  29 S12       30.28F WCI  18
RACINE         CLEAR     29   1  30 S6        30.30F WCI  23
BURLINGTON     CLEAR     23   4  44 S5        30.27F WCI  17
KENOSHA        CLEAR     28   2  32 S7        30.29F WCI  21
FOND DU LAC    MOCLDY    29   8  41 S14       30.22F WCI  18
SHEBOYGAN      PTCLDY    28   8  43 S13       30.24F WCI  17
WEST BEND      PTCLDY    28   3  34 S7        30.24F WCI  21
JUNEAU         PTCLDY    26   8  47 S10       30.24S WCI  15
$$

LSZ147-162-220000-
LAKE SUPERIOR

STATION/POSITION TIME  TEMP    WIND        PRES    WAVE
                       AIR SEA DIR/SP/G            HT/PER
                 (UTC) (F)     (DEG/KT/KT) (MB)    (FT/S)
DEVILS ISLAND    2300   33     220/ 19/ 24 1012.6F
PORT WING        2200   29     200/ 16/ 21 1013.2S
SAXON HARBOR     2200   31     190/  8/ 19 1013.2F
$$

LMZ867-665-643>646-220000-
LAKE MICHIGAN

STATION/POSITION TIME  TEMP    WIND        PRES    WAVE
                       AIR SEA DIR/SP/G            HT/PER
                 (UTC) (F)     (DEG/KT/KT) (MB)    (FT/S)
CHAMBERS ISLAND  2200   28     180/  8/ 18 1022.4F
N MID LAKE BUOY  2250   33 42  210/ 27/ 33 1022.6F   8/ 6
NORTHPORT PIER   2211   27     190/  6/ 16 1022.4F
SISTER BAY       2243          210/ 15/ 19   N/A
KEWAUNEE LAKESHO 2212   29     190/ 13/ 15 1022.8F
SHEBOYGAN LAKESH 2300   31 35  200/ 17/ 20 1025.4F
PORT WASHINGTON  2200   31     210/  7/ 13 1026.1F
ATWATER BUOY     2200   33     210/ 19/ 21 1026.2F
MILWAUKEE LAKESH 2200   32     190/ 13/ 15   N/A
S MID LAKE BUOY  2250   35 43  180/ 21/ 25 1027.3F   4/ 5
KENOSHA   LAKESH 2300   32     200/  9/ 12 1025.7F
$$

TC  - TEMPERATURE IN CELSIUS
VSB - VISIBILITY IN STATUTE MILES
WCI - WIND CHILL INDEX
HX  - HEAT INDEX



USA.gov is the U.S. government's official web portal to all federal, state and local government web resources and services.